Monroe, MI

5:21 AM EDT on August 24, 2016 (GMT -0400)
Custer

Weather History for KTTF - May, 2013

Change the Weather History Date:

Saturday, May 25, 2013

  Actual Average Record
Temperature  
Mean Temperature 52 °F -  
Max Temperature 66 °F 71 °F 91 °F (2012)
Min Temperature 37 °F 51 °F 35 °F (1992)
Degree Days  
Heating Degree Days 14    
Growing Degree Days 2 (Base 50)    
Moisture  
Dew Point 38 °F    
Average Humidity 61    
Maximum Humidity 100    
Minimum Humidity 32    
Precipitation  
Precipitation 0.00 in - - ()
Sea Level Pressure  
Sea Level Pressure 30.33 in    
Wind  
Wind Speed 3 mph (East)    
Max Wind Speed 12 mph    
Max Gust Speed -    
Visibility 10 miles    
Events      
Averages and records for this station are not official NWS values.
T = Trace of Precipitation, MM = Missing Value Source: NWS Daily Summary

Daily Weather History Graph

Daily Weather History Graph

Search for Another Location

Airport or City:

Trip Planner

Search our weather history database for the weather conditions in past years. The results will help you decide how hot, cold, wet, or windy it might be!

Date:

Astronomy

May. 25, 2013 Rise Set
Actual Time 6:04 AM EDT 8:57 PM EDT
Civil Twilight 5:31 AM EDT 9:30 PM EDT
Nautical Twilight 4:50 AM EDT 10:11 PM EDT
Astronomical Twilight 4:01 AM EDT 11:00 PM EDT
Moon 9:43 PM EDT (5/25) 6:30 AM EDT (5/25)
Length of Visible Light 15h 58m
Length of Day
14h 52m
Full, 100% of the Moon is Illuminated
May 25
Full
May 31
Last Quarter
Jun 8
New
Jun 16
First Quarter
Jun 23
Full

Hourly Weather History & Observations

Time (EDT) Temp. Windchill Dew Point Humidity Pressure Visibility Wind Dir Wind Speed Gust Speed Precip Events Conditions
12:16 AM 44.6 °F 42.2 °F 39.2 °F 81% 30.33 in 10.0 mi ENE 4.6 mph - N/A   Clear
12:36 AM 44.6 °F 42.2 °F 39.2 °F 81% 30.33 in 10.0 mi ENE 4.6 mph - N/A   Clear
12:56 AM 44.6 °F 43.1 °F 39.2 °F 81% 30.33 in 10.0 mi ENE 3.5 mph - N/A   Clear
1:11 AM 44.6 °F 42.2 °F 39.2 °F 81% 30.34 in 10.0 mi ENE 4.6 mph - N/A   Clear
1:33 AM 42.8 °F 39.3 °F 39.2 °F 87% 30.33 in 10.0 mi ENE 5.8 mph - N/A   Clear
1:53 AM 42.8 °F 40.1 °F 39.2 °F 87% 30.33 in 10.0 mi ENE 4.6 mph - N/A   Clear
2:13 AM 42.8 °F 40.1 °F 37.4 °F 81% 30.33 in 10.0 mi ENE 4.6 mph - N/A   Clear
2:33 AM 42.8 °F 40.1 °F 37.4 °F 81% 30.33 in 10.0 mi NE 4.6 mph - N/A   Clear
2:54 AM 42.8 °F - 37.4 °F 81% 30.34 in 10.0 mi Calm Calm - N/A   Clear
3:14 AM 42.8 °F - 37.4 °F 81% 30.33 in 10.0 mi Calm Calm - N/A   Clear
3:34 AM 42.8 °F - 37.4 °F 81% 30.34 in 10.0 mi Calm Calm - N/A   Clear
3:54 AM 42.8 °F - 37.4 °F 81% 30.34 in 10.0 mi Calm Calm - N/A   Clear
4:14 AM 39.2 °F - 37.4 °F 93% 30.34 in 10.0 mi Calm Calm - N/A   Clear
4:34 AM 39.2 °F - 37.4 °F 93% 30.34 in 10.0 mi Calm Calm - N/A   Clear
4:54 AM 39.2 °F - 37.4 °F 93% 30.34 in 10.0 mi Calm Calm - N/A   Clear
5:14 AM 37.4 °F - 37.4 °F 100% 30.34 in 7.0 mi Calm Calm - N/A   Clear
5:34 AM 39.2 °F - 37.4 °F 93% 30.33 in 7.0 mi Calm Calm - N/A   Clear
5:55 AM 37.4 °F - 37.4 °F 100% 30.33 in 4.0 mi Calm Calm - N/A   Clear
6:15 AM 37.4 °F - 37.4 °F 100% 30.33 in 5.0 mi Calm Calm - N/A   Clear
6:35 AM 37.4 °F - 37.4 °F 100% 30.34 in 5.0 mi Calm Calm - N/A   Clear
6:55 AM 39.2 °F - 37.4 °F 93% 30.34 in 7.0 mi Calm Calm - N/A   Clear
7:15 AM 42.8 °F - 39.2 °F 87% 30.33 in 10.0 mi Calm Calm - N/A   Clear
7:35 AM 44.6 °F - 39.2 °F 81% 30.34 in 10.0 mi Calm Calm - N/A   Clear
7:55 AM 46.4 °F 45.2 °F 39.2 °F 76% 30.35 in 10.0 mi NE 3.5 mph - N/A   Clear
8:15 AM 48.2 °F - 39.2 °F 71% 30.36 in 10.0 mi NE 3.5 mph - N/A   Mostly Cloudy
8:35 AM 48.2 °F - 39.2 °F 71% 30.38 in 10.0 mi Calm Calm - N/A   Mostly Cloudy
8:56 AM 51.8 °F - 39.2 °F 62% 30.38 in 10.0 mi Calm Calm - N/A   Mostly Cloudy
9:16 AM 51.8 °F - 37.4 °F 58% 30.40 in 10.0 mi NE 5.8 mph - N/A   Overcast
9:36 AM 53.6 °F - 37.4 °F 54% 30.39 in 10.0 mi ESE 3.5 mph - N/A   Mostly Cloudy
9:56 AM 53.6 °F - 33.8 °F 47% 30.39 in 10.0 mi Calm Calm - N/A   Scattered Clouds
10:16 AM 55.4 °F - 33.8 °F 44% 30.39 in 10.0 mi East 4.6 mph - N/A   Clear
10:36 AM 55.4 °F - 35.6 °F 47% 30.38 in 10.0 mi Calm Calm - N/A   Clear
10:56 AM 55.4 °F - 35.6 °F 47% 30.38 in 10.0 mi Calm Calm - N/A   Clear
11:16 AM 55.4 °F - 35.6 °F 47% 30.37 in 10.0 mi East 3.5 mph - N/A   Clear
11:31 AM 57.2 °F - 37.4 °F 48% 30.37 in 10.0 mi ESE 5.8 mph - N/A   Clear
11:51 AM 57.2 °F - 37.4 °F 48% 30.37 in 10.0 mi SE 3.5 mph - N/A   Clear
12:12 PM 59.0 °F - 39.2 °F 48% 30.37 in 10.0 mi SSW 3.5 mph - N/A   Clear
12:32 PM 59.0 °F - 39.2 °F 48% 30.37 in 10.0 mi South 6.9 mph - N/A   Clear
12:52 PM 59.0 °F - 39.2 °F 48% 30.36 in 10.0 mi Calm Calm - N/A   Scattered Clouds
1:12 PM 60.8 °F - 35.6 °F 39% 30.36 in 10.0 mi Calm Calm - N/A   Clear
1:32 PM 62.6 °F - 39.2 °F 42% 30.35 in 10.0 mi East 6.9 mph - N/A   Clear
1:52 PM 60.8 °F - 41.0 °F 48% 30.34 in 10.0 mi SSE 3.5 mph - N/A   Clear
2:12 PM 62.6 °F - 37.4 °F 39% 30.34 in 10.0 mi SSE 5.8 mph - N/A   Clear
2:32 PM 64.4 °F - 37.4 °F 37% 30.33 in 10.0 mi NNE 5.8 mph - N/A   Clear
2:53 PM 62.6 °F - 35.6 °F 37% 30.33 in 10.0 mi North 5.8 mph - N/A   Clear
3:13 PM 64.4 °F - 37.4 °F 37% 30.32 in 10.0 mi NW 3.5 mph - N/A   Clear
3:33 PM 64.4 °F - 35.6 °F 34% 30.31 in 10.0 mi North 5.8 mph - N/A   Clear
3:53 PM 64.4 °F - 33.8 °F 32% 30.31 in 10.0 mi NNW 6.9 mph - N/A   Clear
4:13 PM 64.4 °F - 33.8 °F 32% 30.29 in 10.0 mi Calm Calm - N/A   Clear
4:33 PM 64.4 °F - 39.2 °F 40% 30.30 in 10.0 mi Calm Calm - N/A   Clear
4:53 PM 64.4 °F - 35.6 °F 34% 30.29 in 10.0 mi Calm Calm - N/A   Clear
5:13 PM 64.4 °F - 42.8 °F 45% 30.29 in 10.0 mi South 3.5 mph - N/A   Clear
5:34 PM 66.2 °F - 35.6 °F 32% 30.28 in 10.0 mi Calm Calm - N/A   Clear
5:54 PM 64.4 °F - 42.8 °F 45% 30.27 in 10.0 mi SSE 8.1 mph - N/A   Clear
6:14 PM 64.4 °F - 42.8 °F 45% 30.27 in 10.0 mi South 5.8 mph - N/A   Clear
6:34 PM 64.4 °F - 39.2 °F 40% 30.27 in 10.0 mi SSE 5.8 mph - N/A   Clear
6:54 PM 64.4 °F - 39.2 °F 40% 30.26 in 10.0 mi SSE 5.8 mph - N/A   Clear
7:14 PM 64.4 °F - 39.2 °F 40% 30.27 in 10.0 mi Calm Calm - N/A   Clear
7:34 PM 62.6 °F - 41.0 °F 45% 30.26 in 10.0 mi Calm Calm - N/A   Clear
7:54 PM 62.6 °F - 41.0 °F 45% 30.27 in 10.0 mi Calm Calm - N/A   Clear
8:15 PM 62.6 °F - 39.2 °F 42% 30.26 in 10.0 mi Calm Calm - N/A   Clear
8:35 PM 60.8 °F - 39.2 °F 45% 30.27 in 10.0 mi East 8.1 mph - N/A   Scattered Clouds
8:55 PM 59.0 °F - 39.2 °F 48% 30.27 in 10.0 mi East 11.5 mph - N/A   Clear
9:15 PM 57.2 °F - 39.2 °F 51% 30.28 in 10.0 mi ENE 9.2 mph - N/A   Clear
9:35 PM 55.4 °F - 39.2 °F 54% 30.28 in 10.0 mi ENE 6.9 mph - N/A   Clear
9:55 PM 55.4 °F - 39.2 °F 54% 30.29 in 10.0 mi ENE 6.9 mph - N/A   Clear
10:15 PM 55.4 °F - 39.2 °F 54% 30.29 in 10.0 mi ENE 5.8 mph - N/A   Clear
10:35 PM 53.6 °F - 39.2 °F 58% 30.30 in 10.0 mi East 4.6 mph - N/A   Clear
10:55 PM 53.6 °F - 39.2 °F 58% 30.30 in 10.0 mi ENE 3.5 mph - N/A   Clear
11:16 PM 51.8 °F - 39.2 °F 62% 30.30 in 10.0 mi ENE 5.8 mph - N/A   Clear
11:36 PM 51.8 °F - 39.2 °F 62% 30.30 in 10.0 mi ENE 5.8 mph - N/A   Clear
11:56 PM 51.8 °F - 39.2 °F 62% 30.31 in 10.0 mi NE 4.6 mph - N/A   Clear